Regional Weather Roundup
Issued by NWS

Home | Current Version | Previous Version | Text Only | Print | Product List | Glossary Off
Versions: 1 2 3 4 5 6 7 8 9 10 11 12 13 14 15 16 17 18 19 20 21 22 23 24 25 26 27 28 29 30 31 32 33 34 35 36 37 38 39 40 41 42 43 44 45 46 47 48 49 50

000
ASUS43 KDMX 091106
RWRIA

WEATHER ROUNDUP FOR IOWA
NATIONAL WEATHER SERVICE DES MOINES IA
500 AM CST FRI DEC 09 2016

NOTE: "FAIR" INDICATES FEW OR NO CLOUDS BELOW 12,000 FEET WITH NO
SIGNIFICANT WEATHER AND/OR OBSTRUCTIONS TO VISIBILITY.

* - THESE STATIONS ARE NOT NWS STATIONS...THUS NOT UNDER NWS
QUALITY CONTROL.  THEY ALSO DO NOT REPORT WEATHER SUCH
AS PRECIPITATION OR FOG.

IAZ001>003-012>014-020>022-031>034-043>046-091200-
   NORTHWEST IOWA

CITY           SKY/WX    TMP DP  RH WIND       PRES   REMARKS
CARROLL *      CLEAR      5   3  92 NW7       30.59F WCI  -7
CHEROKEE *     CLEAR      3   1  91 CALM      30.59F
DENISON *      CLEAR      7   3  85 NW3       30.57F
LE MARS *      CLEAR      3   0  85 CALM      30.61S
ORANGE CITY *  CLEAR      1   0  92 CALM      30.56F
SHELDON *      CLEAR      1   0  92 NW6       30.55F WCI -10
SIOUX CITY     CLEAR      4  -1  80 NW5       30.62F WCI  -5
SPENCER        CLEAR      2  -1  88 W13       30.57F WCI -15
STORM LAKE *   CLEAR      3   0  85 NW8       30.56F WCI -10
$$

IAZ055>058-069>071-079>083-090>094-091200-
   SOUTHWEST IOWA

CITY           SKY/WX    TMP DP  RH WIND       PRES   REMARKS
ATLANTIC *     CLEAR      7   3  85 CALM      30.61F
AUDUBON *      CLEAR      7   3  85 CALM      30.58F
CLARINDA *     CLEAR      7   5  92 CALM      30.65F
COUNCIL BLFS * CLEAR      9   5  85 NW3       30.60F
CRESTON *      CLEAR      9   3  78 NW3       30.60S
HARLAN  *      CLEAR      3   1  92 NW3       30.63F
LAMONI         CLEAR      8   4  83 NW5       30.60S WCI   0
RED OAK *      CLEAR      7   5  92 CALM      30.63F
SHENANDOAH *   CLEAR     10   7  85 CALM      30.64F
$$

IAZ047>049-059>061-072>074-084-091200-
   CENTRAL IOWA

CITY           SKY/WX    TMP DP  RH WIND       PRES   REMARKS
AMES           CLEAR     10   7  87 NW9       30.59S WCI  -3
ANKENY *       CLEAR     10   7  85 NW8       30.62S WCI  -1
BOONE *        CLEAR      9   5  85 NW9       30.56F WCI  -5
CHARITON *     CLEAR     10   7  85 W8        30.60R WCI  -1
DES MOINES     CLEAR     12   6  77 NW8       30.61R WCI   0
GRINNELL*      FLURRIES  14   9  80 NW13      30.58S WCI   0
KNOXVILLE *    PTCLDY    10   5  79 NW7       30.60R WCI   0
MARSHALLTOWN   CLOUDY    14   8  77 NW10      30.57S WCI   1
NEWTON *       CLOUDY    14  10  85 NW10      30.58S WCI   1
PELLA *        CLOUDY    13   9  82 NW12      30.61S WCI  -1
PERRY *          N/A      9   7  89 W7        30.61S WCI  -2
$$

IAZ004>006-015-016-023>025-035-036-091200-
   NORTH CENTRAL IOWA

CITY           SKY/WX    TMP DP  RH WIND       PRES   REMARKS
ALGONA *       CLOUDY    10   7  85 NW9       30.55F WCI  -2
CLARION *      CLOUDY    12   9  85 NW10      30.56F WCI  -1
ESTHERVILLE    CLEAR      3   1  91 NW5       30.55F WCI  -6
FORT DODGE *   CLEAR      7   0  72 NW3       30.58F
MASON CITY     PTCLDY    11   7  84 NW10      30.55F WCI  -3
FOREST CITY *  LGT SNOW  12   9  85 NW9       30.54F WCI   0
WEBSTER CITY * CLEAR      9   5  85 NW12      30.56S WCI  -6
IOWA FALLS *   FLURRIES  15  10  80 NW13      30.57S WCI   0
$$

IAZ007>011-017>019-026>030-037>042-050>054-066-091200-
   NORTHEAST IOWA

CITY           SKY/WX    TMP DP  RH WIND       PRES   REMARKS
CEDAR RAPIDS   MOCLDY    13  11  92 NW9       30.55R WCI   1
CHARLES CITY * FLURRIES  10   7  85 NW9       30.55S WCI  -2
CLINTON *      CLOUDY    17  13  84 W13       30.54R WCI   4
DECORAH *      CLOUDY    14  10  85 NW6       30.51R WCI   5
DUBUQUE        CLOUDY    16  12  84 NW8       30.50R WCI   5
MONTICELLO *   CLOUDY    16  10  79 W9        30.54R WCI   4
OELWEIN *      CLOUDY    12  10  92 NW12G17   30.55R WCI  -2
WATERLOO       CLEAR     13   8  81 NW8       30.56R WCI   2
$$

IAZ064-065-067-068-078-091200-
   EAST CENTRAL IOWA

CITY           SKY/WX    TMP DP  RH WIND       PRES   REMARKS
DAVENPORT      CLOUDY    17  11  77 W13       30.55R WCI   4
IOWA CITY      CLEAR     16  10  77 NW8       30.59R WCI   5
MUSCATINE *    CLOUDY    19  12  73 NW9       30.59R WCI   9
QUAD CITIES    CLOUDY    20  11  68 NW8       30.55S WCI  10
$$

IAZ062-063-075>077-085>089-095>099-091200-
   SOUTHEAST IOWA

CITY           SKY/WX    TMP DP  RH WIND       PRES   REMARKS
BURLINGTON     CLOUDY    20  11  68 NW10      30.58R WCI   9
FAIRFIELD *    CLOUDY    19   9  63 NW13      30.58S WCI   7
FORT MADISON * CLOUDY    19  12  73 NW9       30.59R WCI   9
KEOKUK *       FLURRIES  21  12  68 NW8G16    30.59R WCI  12
OSKALOOSA *    FLURRIES  16  12  83 W10       30.59S WCI   4
CENTERVILLE *    N/A     10   7  85 CALM      30.61S
OTTUMWA        CLOUDY    17   9  70 NW9       30.59S WCI   6
WASHINGTON *   CLOUDY    18  10  73 NW14G20   30.59S WCI   4
$$

ABBREVIATIONS USED IN REMARKS
   TC - TEMPERATURES IN CELSIUS
  WCI - WIND CHILL INDEX
   HX - HEAT INDEX
  VSB - VISIBILITY
$$





USA.gov is the U.S. government's official web portal to all federal, state and local government web resources and services.